Weather History for Moline, IL

Change the Weather History Date:

Friday, January 20, 2012

  Actual Average Record
Temperature  
Mean Temperature 9 °F 22 °F  
Max Temperature 14 °F 31 °F 63 °F (1906)
Min Temperature 4 °F 14 °F -21 °F (1985)
Degree Days  
Heating Degree Days 56 43  
Month to date heating degree days 753 849  
Since 1 July heating degree days 2871 3270  
Cooling Degree Days 0 0  
Month to date cooling degree days 0 0  
Year to date cooling degree days 0 0  
Moisture  
Dew Point 5 °F    
Average Humidity 72    
Maximum Humidity 88    
Minimum Humidity 55    
Precipitation  
Precipitation 0.09 in 0.05 in 1.83 in (1904)
Month to date precipitation 0.55 0.99  
Year to date precipitation 0.55 0.99  
Snow  
Snow 1.10 in 0.30 in - ()
Month to date snowfall 6.7 6.1  
Since 1 July snowfall 8.1 16.6  
Snow Depth 0.00 in    
Sea Level Pressure  
Sea Level Pressure 30.12 in    
Wind  
Wind Speed 11 mph (ENE)    
Max Wind Speed 20 mph    
Max Gust Speed 25 mph    
Visibility 5 miles    
Events Snow    
T = Trace of Precipitation, MM = Missing Value Source: NWS Daily Summary

Daily Weather History Graph

Daily Weather History Graph

Search for Another Location

Airport:

Trip Planner

Search our weather history database for the weather conditions in past years. The results will help you decide how hot, cold, wet, or windy it might be!

Date:

Astronomy

Jan. 20, 2012 Rise Set
Actual Time 7:23 AM CST 5:02 PM CST
Civil Twilight 6:53 AM CST 5:32 PM CST
Nautical Twilight 6:19 AM CST 6:06 PM CST
Astronomical Twilight 5:46 AM CST 6:39 PM CST
Moon 5:01 AM CST (1/20) 2:33 PM CST (1/20)
Length of Visible Light 10h 39m
Length of Day
9h 39m
Waning Crescent, 8% of the Moon is Illuminated
Jan 20
Waning Crescent
Jan 23
New
Jan 30
First Quarter
Feb 7
Full
Feb 14
Last Quarter

Hourly Weather History & Observations

Time (CST) Temp. Windchill Dew Point Humidity Pressure Visibility Wind Dir Wind Speed Gust Speed Precip Events Conditions
12:52 AM 5.0 °F -6.9 °F -7.1 °F 58% 30.24 in 10.0 mi ENE 6.9 mph - N/A   Clear
1:52 AM 5.0 °F -5.6 °F -7.1 °F 58% 30.25 in 10.0 mi East 5.8 mph - N/A   Clear
2:52 AM 6.1 °F -2.8 °F -7.1 °F 55% 30.27 in 10.0 mi East 4.6 mph - N/A   Overcast
3:52 AM 6.1 °F -6.8 °F -6.0 °F 58% 30.24 in 10.0 mi ENE 8.1 mph - N/A   Overcast
4:52 AM 7.0 °F -7.5 °F -5.1 °F 58% 30.22 in 10.0 mi East 10.4 mph - N/A   Overcast
5:52 AM 7.0 °F -11.0 °F -5.1 °F 58% 30.17 in 10.0 mi East 16.1 mph - N/A   Overcast
6:52 AM 8.1 °F -9.6 °F -4.0 °F 58% 30.15 in 10.0 mi East 16.1 mph - N/A   Overcast
7:52 AM 9.0 °F -6.6 °F -2.9 °F 59% 30.18 in 10.0 mi East 12.7 mph - N/A   Overcast
8:52 AM 10.0 °F -4.5 °F -2.0 °F 58% 30.19 in 10.0 mi East 11.5 mph - N/A   Overcast
9:50 AM 8.6 °F -8.3 °F 1.4 °F 73% 30.11 in 1.5 mi East 15.0 mph - 0.00 in Snow Light Snow
9:52 AM 9.0 °F -7.9 °F 1.9 °F 73% 30.16 in 1.5 mi East 15.0 mph - 0.00 in Snow Light Snow
9:55 AM 8.6 °F -7.0 °F 1.4 °F 73% 30.12 in 1.5 mi East 12.7 mph - 0.00 in Snow Light Snow
10:02 AM 8.6 °F -4.7 °F 3.2 °F 79% 30.13 in 1.0 mi East 9.2 mph - 0.00 in Snow Light Snow
10:03 AM 8.6 °F -3.7 °F 3.2 °F 79% 30.13 in 0.8 mi East 8.1 mph - 0.00 in Snow Light Snow
10:06 AM 8.6 °F -5.5 °F 3.2 °F 79% 30.12 in 0.8 mi East 10.4 mph - 0.00 in Snow Light Snow
10:13 AM 8.6 °F -6.3 °F 3.2 °F 79% 30.11 in 0.5 mi East 11.5 mph - 0.00 in Snow Snow
10:22 AM 8.6 °F -7.0 °F 3.2 °F 79% 30.10 in 0.5 mi East 12.7 mph - N/A Snow Snow
10:26 AM 8.6 °F -7.0 °F 5.0 °F 85% 30.11 in 0.8 mi East 12.7 mph - 0.01 in Snow Light Snow
10:52 AM 10.0 °F -2.9 °F 5.0 °F 80% 30.14 in 1.0 mi ENE 9.2 mph - 0.02 in Snow Light Snow
11:09 AM 10.4 °F -3.3 °F 5.0 °F 79% 30.10 in 1.5 mi ENE 10.4 mph - 0.00 in Snow Light Snow
11:26 AM 10.4 °F -3.3 °F 6.8 °F 85% 30.10 in 1.5 mi East 10.4 mph - 0.01 in Snow Light Snow
11:52 AM 10.9 °F -1.8 °F 6.1 °F 81% 30.13 in 7.0 mi ENE 9.2 mph - 0.01 in   Overcast
12:52 PM 12.0 °F -4.0 °F 7.0 °F 80% 30.09 in 10.0 mi East 15.0 mph - N/A   Overcast
1:21 PM 12.2 °F -2.5 °F 6.8 °F 79% 30.05 in 10.0 mi ENE 12.7 mph - N/A   Overcast
1:52 PM 12.9 °F -0.9 °F 8.1 °F 81% 30.09 in 1.0 mi NE 11.5 mph - 0.00 in Snow Light Snow
2:05 PM 12.2 °F -3.7 °F 8.6 °F 85% 30.05 in 1.0 mi ENE 15.0 mph - 0.00 in Snow Light Snow
2:48 PM 12.2 °F -4.3 °F 8.6 °F 85% 30.01 in 1.0 mi ENE 16.1 mph - 0.01 in Snow Light Snow
2:52 PM 12.9 °F -3.4 °F 9.0 °F 84% 30.04 in 1.0 mi ENE 16.1 mph - 0.01 in Snow Light Snow
3:00 PM 12.2 °F -3.1 °F 8.6 °F 85% 30.00 in 1.0 mi NE 13.8 mph 21.9 mph 0.00 in Snow Light Snow
3:27 PM 12.2 °F -2.5 °F 6.8 °F 79% 30.02 in 1.0 mi ENE 12.7 mph - 0.01 in Snow Light Snow
3:52 PM 12.0 °F -4.0 °F 7.0 °F 80% 30.06 in 1.5 mi ENE 15.0 mph - 0.02 in Snow Light Snow
4:02 PM 12.2 °F -3.7 °F 6.8 °F 79% 30.02 in 2.0 mi NE 15.0 mph - 0.00 in Snow Light Snow
4:22 PM 12.2 °F -3.7 °F 6.8 °F 79% 30.02 in 4.0 mi NE 15.0 mph - 0.00 in   Haze
4:52 PM 12.2 °F -4.3 °F 6.8 °F 79% 30.01 in 7.0 mi ENE 16.1 mph - N/A   Overcast
5:52 PM 14.0 °F -0.8 °F 8.1 °F 77% 30.08 in 10.0 mi ENE 13.8 mph - 0.01 in   Overcast
6:52 PM 12.9 °F -0.2 °F 9.0 °F 84% 30.10 in 4.0 mi ENE 10.4 mph - 0.00 in   Overcast
7:30 PM 14.0 °F 5.1 °F 10.4 °F 86% 30.08 in 2.5 mi ENE 5.8 mph - 0.01 in   Overcast
7:52 PM 14.0 °F 3.9 °F 10.0 °F 84% 30.12 in 3.0 mi NE 6.9 mph - 0.02 in   Overcast
8:41 PM 14.0 °F 2.9 °F 10.4 °F 86% 30.09 in 5.0 mi NE 8.1 mph - N/A   Overcast
8:52 PM 14.0 °F 2.9 °F 10.9 °F 88% 30.13 in 4.0 mi North 8.1 mph - N/A   Overcast
9:02 PM 14.0 °F 3.9 °F 10.4 °F 86% 30.10 in 6.0 mi NNE 6.9 mph - N/A   Overcast
9:20 PM 14.0 °F 5.1 °F 10.4 °F 86% 30.10 in 4.0 mi NE 5.8 mph - 0.00 in Snow Light Snow
9:52 PM 14.0 °F 3.9 °F 10.9 °F 88% 30.14 in 6.0 mi NNE 6.9 mph - 0.00 in   Overcast
10:52 PM 12.9 °F -0.2 °F 9.0 °F 84% 30.16 in 7.0 mi North 10.4 mph - 0.00 in   Overcast
11:03 PM 12.2 °F 0.7 °F 8.6 °F 85% 30.13 in 7.0 mi North 8.1 mph - N/A   Overcast
11:48 PM 12.2 °F 0.7 °F 6.8 °F 79% 30.15 in 10.0 mi North 8.1 mph - N/A   Overcast
11:52 PM 12.0 °F -0.4 °F 7.0 °F 80% 30.19 in 10.0 mi North 9.2 mph - N/A   Overcast